Find Globalstar M075

NORAD ID: 37192 Int'l Des: 2010-054 Owner: GLOB Country: US Constellation: globalstar operational
LEOCIRCULAR

Current View

Loading 3D Globe...

About Globalstar M075

Description loading...

Upcoming Passes

Passes for default location (London). Set your location on the main map for personalized predictions.

Altitude History

Loading altitude history...

Two-Line Element Set

1 37192U 10054E 26151.51171661 -.00000066 00000-0 21145-3 0 9994
2 37192 51.9929 200.9669 0000253 153.5995 346.4358 12.62267297719833
Epoch: May 31, 2026 • Age: 7 hours

Current Status

Altitude 1418.1 km
Velocity 7.16 km/s
Sub-Earth Point 44.06°N, 67.52°E
Launch Date Oct 19, 2010
Age 15.6 years
Type communications

Technical Details

Classification Payload
Mass 715.00 kg
Dry Mass 500.00 kg
Total Mass 715.00 kg
Length 4.00 m
Diameter 2.00 m
Span 12.00 m
Shape Trap Cyl + 2 Pan
Manufacturer THALR
Bus Type Prisma
Phase Status In Orbit
Owner/State GLOB/US

Most Searched